Year,Month,Day,Hour,Minute,Value (Times are PST for temperature in C)
2014,09,16,00,00,14.40
2014,09,16,00,01,14.40
2014,09,16,00,02,14.40
2014,09,16,00,03,14.40
2014,09,16,00,04,14.30
2014,09,16,00,05,14.30
2014,09,16,00,06,14.30
2014,09,16,00,07,14.30
2014,09,16,00,08,14.30
2014,09,16,00,09,14.20
2014,09,16,00,10,14.20
2014,09,16,00,11,14.20
2014,09,16,00,12,14.20
2014,09,16,00,13,14.20
2014,09,16,00,14,14.20
2014,09,16,00,15,14.20
2014,09,16,00,16,14.20
2014,09,16,00,17,14.20
2014,09,16,00,18,14.30
2014,09,16,00,19,14.30
2014,09,16,00,20,14.30
2014,09,16,00,21,14.30
2014,09,16,00,22,14.30
2014,09,16,00,23,14.40
2014,09,16,00,24,14.40
2014,09,16,00,25,14.40
2014,09,16,00,26,14.40
2014,09,16,00,27,14.50
2014,09,16,00,28,14.50
2014,09,16,00,29,14.50
2014,09,16,00,30,14.60
2014,09,16,00,31,14.60
2014,09,16,00,32,14.60
2014,09,16,00,33,14.60
2014,09,16,00,34,14.60
2014,09,16,00,35,14.60
2014,09,16,00,36,14.60
2014,09,16,00,37,14.60
2014,09,16,00,38,14.60
2014,09,16,00,39,14.60
2014,09,16,00,40,14.60
2014,09,16,00,41,14.60
2014,09,16,00,42,14.60
2014,09,16,00,43,14.60
2014,09,16,00,44,14.60
2014,09,16,00,45,14.50
2014,09,16,00,46,14.50
2014,09,16,00,47,14.50
2014,09,16,00,48,14.50
2014,09,16,00,49,14.50
2014,09,16,00,50,14.50
2014,09,16,00,51,14.50
2014,09,16,00,52,14.40
2014,09,16,00,53,14.40
2014,09,16,00,54,14.40
2014,09,16,00,55,14.40
2014,09,16,00,56,14.50
2014,09,16,00,57,14.50
2014,09,16,00,58,14.70
2014,09,16,00,59,14.80
2014,09,16,01,00,15.00
2014,09,16,01,01,15.00
2014,09,16,01,02,15.10
2014,09,16,01,03,15.20
2014,09,16,01,04,15.30
2014,09,16,01,05,15.30
2014,09,16,01,06,15.30
2014,09,16,01,07,15.30
2014,09,16,01,08,15.30
2014,09,16,01,09,15.30
2014,09,16,01,10,15.30
2014,09,16,01,11,15.20
2014,09,16,01,12,15.20
2014,09,16,01,13,15.20
2014,09,16,01,14,15.20
2014,09,16,01,15,15.10
2014,09,16,01,16,15.10
2014,09,16,01,17,15.00
2014,09,16,01,18,15.00
2014,09,16,01,19,14.90
2014,09,16,01,20,14.90
2014,09,16,01,21,14.80
2014,09,16,01,22,14.80
2014,09,16,01,23,14.80
2014,09,16,01,24,14.80
2014,09,16,01,25,14.80
2014,09,16,01,26,14.70
2014,09,16,01,27,14.70
2014,09,16,01,28,14.60
2014,09,16,01,29,14.60
2014,09,16,01,30,14.50
2014,09,16,01,31,14.50
2014,09,16,01,32,14.50
2014,09,16,01,33,14.40
2014,09,16,01,34,14.40
2014,09,16,01,35,14.40
2014,09,16,01,36,14.30
2014,09,16,01,37,14.30
2014,09,16,01,38,14.30
2014,09,16,01,39,14.20
2014,09,16,01,40,14.20
2014,09,16,01,41,14.20
2014,09,16,01,42,14.20
2014,09,16,01,43,14.20
2014,09,16,01,44,14.10
2014,09,16,01,45,14.10
2014,09,16,01,46,14.10
2014,09,16,01,47,14.00
2014,09,16,01,48,14.00
2014,09,16,01,49,14.00
2014,09,16,01,50,14.00
2014,09,16,01,51,13.90
2014,09,16,01,52,13.90
2014,09,16,01,53,13.90
2014,09,16,01,54,13.80
2014,09,16,01,55,13.80
2014,09,16,01,56,13.80
2014,09,16,01,57,13.70
2014,09,16,01,58,13.70
2014,09,16,01,59,13.70
2014,09,16,02,00,13.70
2014,09,16,02,01,13.70
2014,09,16,02,02,13.70
2014,09,16,02,03,13.70
2014,09,16,02,04,13.60
2014,09,16,02,05,13.60
2014,09,16,02,06,13.60
2014,09,16,02,07,13.50
2014,09,16,02,08,13.50
2014,09,16,02,09,13.50
2014,09,16,02,10,13.40
2014,09,16,02,11,13.40
2014,09,16,02,12,13.40
2014,09,16,02,13,13.40
2014,09,16,02,14,13.30
2014,09,16,02,15,13.30
2014,09,16,02,16,13.30
2014,09,16,02,17,13.30
2014,09,16,02,18,13.30
2014,09,16,02,19,13.30
2014,09,16,02,20,13.30
2014,09,16,02,21,13.30
2014,09,16,02,22,13.20
2014,09,16,02,23,13.20
2014,09,16,02,24,13.20
2014,09,16,02,25,13.10
2014,09,16,02,26,13.10
2014,09,16,02,27,13.10
2014,09,16,02,28,13.10
2014,09,16,02,29,13.10
2014,09,16,02,30,13.00
2014,09,16,02,31,13.00
2014,09,16,02,32,13.00
2014,09,16,02,33,13.00
2014,09,16,02,34,13.00
2014,09,16,02,35,12.90
2014,09,16,02,36,12.90
2014,09,16,02,37,12.90
2014,09,16,02,38,12.90
2014,09,16,02,39,12.90
2014,09,16,02,40,12.80
2014,09,16,02,41,12.80
2014,09,16,02,42,12.80
2014,09,16,02,43,12.80
2014,09,16,02,44,12.80
2014,09,16,02,45,12.80
2014,09,16,02,46,12.80
2014,09,16,02,47,12.80
2014,09,16,02,48,12.80
2014,09,16,02,49,12.80
2014,09,16,02,50,12.80
2014,09,16,02,51,12.70
2014,09,16,02,52,12.70
2014,09,16,02,53,12.70
2014,09,16,02,54,12.70
2014,09,16,02,55,12.70
2014,09,16,02,56,12.70
2014,09,16,02,57,12.70
2014,09,16,02,58,12.70
2014,09,16,02,59,12.70
2014,09,16,03,00,12.60
2014,09,16,03,01,12.60
2014,09,16,03,02,12.60
2014,09,16,03,03,12.60
2014,09,16,03,04,12.60
2014,09,16,03,05,12.50
2014,09,16,03,06,12.50
2014,09,16,03,07,12.50
2014,09,16,03,08,12.50
2014,09,16,03,09,12.50
2014,09,16,03,10,12.50
2014,09,16,03,11,12.40
2014,09,16,03,12,12.40
2014,09,16,03,13,12.40
2014,09,16,03,14,12.40
2014,09,16,03,15,12.30
2014,09,16,03,16,12.30
2014,09,16,03,17,12.30
2014,09,16,03,18,12.30
2014,09,16,03,19,12.30
2014,09,16,03,20,12.30
2014,09,16,03,21,12.30
2014,09,16,03,22,12.30
2014,09,16,03,23,12.30
2014,09,16,03,24,12.30
2014,09,16,03,25,12.30
2014,09,16,03,26,12.30
2014,09,16,03,27,12.30
2014,09,16,03,28,12.20
2014,09,16,03,29,12.20
2014,09,16,03,30,12.20
2014,09,16,03,31,12.20
2014,09,16,03,32,12.20
2014,09,16,03,33,12.20
2014,09,16,03,34,12.20
2014,09,16,03,35,12.20
2014,09,16,03,36,12.10
2014,09,16,03,37,12.10
2014,09,16,03,38,12.10
2014,09,16,03,39,12.10
2014,09,16,03,40,12.10
2014,09,16,03,41,12.00
2014,09,16,03,42,12.00
2014,09,16,03,43,12.00
2014,09,16,03,44,12.00
2014,09,16,03,45,12.00
2014,09,16,03,46,12.00
2014,09,16,03,47,12.00
2014,09,16,03,48,12.00
2014,09,16,03,49,12.00
2014,09,16,03,50,12.00
2014,09,16,03,51,12.00
2014,09,16,03,52,12.00
2014,09,16,03,53,11.90
2014,09,16,03,54,11.90
2014,09,16,03,55,11.90
2014,09,16,03,56,11.90
2014,09,16,03,57,11.90
2014,09,16,03,58,11.90
2014,09,16,03,59,11.90
2014,09,16,04,00,11.80
2014,09,16,04,01,11.80
2014,09,16,04,02,11.80
2014,09,16,04,03,11.80
2014,09,16,04,04,11.80
2014,09,16,04,05,11.80
2014,09,16,04,06,11.80
2014,09,16,04,07,11.80
2014,09,16,04,08,11.80
2014,09,16,04,09,11.80
2014,09,16,04,10,11.80
2014,09,16,04,11,11.80
2014,09,16,04,12,11.80
2014,09,16,04,13,11.80
2014,09,16,04,14,11.80
2014,09,16,04,15,11.80
2014,09,16,04,16,11.80
2014,09,16,04,17,11.80
2014,09,16,04,18,11.80
2014,09,16,04,19,11.70
2014,09,16,04,20,11.70
2014,09,16,04,21,11.70
2014,09,16,04,22,11.70
2014,09,16,04,23,11.70
2014,09,16,04,24,11.70
2014,09,16,04,25,11.70
2014,09,16,04,26,11.70
2014,09,16,04,27,11.70
2014,09,16,04,28,11.70
2014,09,16,04,29,11.70
2014,09,16,04,30,11.70
2014,09,16,04,31,11.70
2014,09,16,04,32,11.70
2014,09,16,04,33,11.70
2014,09,16,04,34,11.70
2014,09,16,04,35,11.70
2014,09,16,04,36,11.70
2014,09,16,04,37,11.70
2014,09,16,04,38,11.70
2014,09,16,04,39,11.70
2014,09,16,04,40,11.70
2014,09,16,04,41,11.70
2014,09,16,04,42,11.70
2014,09,16,04,43,11.60
2014,09,16,04,44,11.60
2014,09,16,04,45,11.60
2014,09,16,04,46,11.60
2014,09,16,04,47,11.60
2014,09,16,04,48,11.60
2014,09,16,04,49,11.60
2014,09,16,04,50,11.60
2014,09,16,04,51,11.60
2014,09,16,04,52,11.60
2014,09,16,04,53,11.60
2014,09,16,04,54,11.60
2014,09,16,04,55,11.60
2014,09,16,04,56,11.60
2014,09,16,04,57,11.60
2014,09,16,04,58,11.60
2014,09,16,04,59,11.60
2014,09,16,05,00,11.60
2014,09,16,05,01,11.60
2014,09,16,05,02,11.60
2014,09,16,05,03,11.60
2014,09,16,05,04,11.60
2014,09,16,05,05,11.60
2014,09,16,05,06,11.50
2014,09,16,05,07,11.40
2014,09,16,05,08,11.40
2014,09,16,05,09,11.40
2014,09,16,05,10,11.40
2014,09,16,05,11,11.40
2014,09,16,05,12,11.40
2014,09,16,05,13,11.40
2014,09,16,05,14,11.40
2014,09,16,05,15,11.40
2014,09,16,05,16,11.30
2014,09,16,05,17,11.30
2014,09,16,05,18,11.30
2014,09,16,05,19,11.30
2014,09,16,05,20,11.30
2014,09,16,05,21,11.30
2014,09,16,05,22,11.20
2014,09,16,05,23,11.20
2014,09,16,05,24,11.20
2014,09,16,05,25,11.20
2014,09,16,05,26,11.20
2014,09,16,05,27,11.20
2014,09,16,05,28,11.20
2014,09,16,05,29,11.20
2014,09,16,05,30,11.20
2014,09,16,05,31,11.20
2014,09,16,05,32,11.20
2014,09,16,05,33,11.20
2014,09,16,05,34,11.20
2014,09,16,05,35,11.20
2014,09,16,05,36,11.20
2014,09,16,05,37,11.20
2014,09,16,05,38,11.20
2014,09,16,05,39,11.30
2014,09,16,05,40,11.30
2014,09,16,05,41,11.30
2014,09,16,05,42,11.30
2014,09,16,05,43,11.30
2014,09,16,05,44,11.40
2014,09,16,05,45,11.40
2014,09,16,05,46,11.40
2014,09,16,05,47,11.40
2014,09,16,05,48,11.40
2014,09,16,05,49,11.40
2014,09,16,05,50,11.40
2014,09,16,05,51,11.40
2014,09,16,05,52,11.50
2014,09,16,05,53,11.60
2014,09,16,05,54,11.60
2014,09,16,05,55,11.60
2014,09,16,05,56,11.60
2014,09,16,05,57,11.60
2014,09,16,05,58,11.60
2014,09,16,05,59,11.60
2014,09,16,06,00,11.60
2014,09,16,06,01,11.60
2014,09,16,06,02,11.60
2014,09,16,06,03,11.60
2014,09,16,06,04,11.60
2014,09,16,06,05,11.60
2014,09,16,06,06,11.60
2014,09,16,06,07,11.60
2014,09,16,06,08,11.60
2014,09,16,06,09,11.60
2014,09,16,06,10,11.60
2014,09,16,06,11,11.60
2014,09,16,06,12,11.60
2014,09,16,06,13,11.60
2014,09,16,06,14,11.60
2014,09,16,06,15,11.60
2014,09,16,06,16,11.50
2014,09,16,06,17,11.40
2014,09,16,06,18,11.40
2014,09,16,06,19,11.40
2014,09,16,06,20,11.40
2014,09,16,06,21,11.40
2014,09,16,06,22,11.40
2014,09,16,06,23,11.40
2014,09,16,06,24,11.40
2014,09,16,06,25,11.40
2014,09,16,06,26,11.40
2014,09,16,06,27,11.40
2014,09,16,06,28,11.40
2014,09,16,06,29,11.40
2014,09,16,06,30,11.40
2014,09,16,06,31,11.30
2014,09,16,06,32,11.30
2014,09,16,06,33,11.30
2014,09,16,06,34,11.30
2014,09,16,06,35,11.30
2014,09,16,06,36,11.20
2014,09,16,06,37,11.20
2014,09,16,06,38,11.20
2014,09,16,06,39,11.10
2014,09,16,06,40,11.10
2014,09,16,06,41,11.10
2014,09,16,06,42,11.10
2014,09,16,06,43,11.00
2014,09,16,06,44,10.90
2014,09,16,06,45,10.90
2014,09,16,06,46,10.90
2014,09,16,06,47,10.90
2014,09,16,06,48,10.90
2014,09,16,06,49,10.90
2014,09,16,06,50,10.90
2014,09,16,06,51,10.90
2014,09,16,06,52,10.90
2014,09,16,06,53,10.90
2014,09,16,06,54,10.90
2014,09,16,06,55,10.80
2014,09,16,06,56,10.80
2014,09,16,06,57,10.80
2014,09,16,06,58,10.80
2014,09,16,06,59,10.80
2014,09,16,07,00,10.80
2014,09,16,07,01,10.80
2014,09,16,07,02,10.70
2014,09,16,07,03,10.70
2014,09,16,07,04,10.70
2014,09,16,07,05,10.70
2014,09,16,07,06,10.60
2014,09,16,07,07,10.60
2014,09,16,07,08,10.60
2014,09,16,07,09,10.60
2014,09,16,07,10,10.60
2014,09,16,07,11,10.60
2014,09,16,07,12,10.60
2014,09,16,07,13,10.60
2014,09,16,07,14,10.60
2014,09,16,07,15,10.60
2014,09,16,07,16,10.60
2014,09,16,07,17,10.60
2014,09,16,07,18,10.60
2014,09,16,07,19,10.60
2014,09,16,07,20,10.60
2014,09,16,07,21,10.60
2014,09,16,07,22,10.60
2014,09,16,07,23,10.60
2014,09,16,07,24,10.60
2014,09,16,07,25,10.70
2014,09,16,07,26,10.70
2014,09,16,07,27,10.70
2014,09,16,07,28,10.70
2014,09,16,07,29,10.70
2014,09,16,07,30,10.70
2014,09,16,07,31,10.80
2014,09,16,07,32,10.80
2014,09,16,07,33,10.80
2014,09,16,07,34,10.90
2014,09,16,07,35,10.90
2014,09,16,07,36,10.90
2014,09,16,07,37,10.90
2014,09,16,07,38,10.90
2014,09,16,07,39,10.90
2014,09,16,07,40,11.00
2014,09,16,07,41,11.10
2014,09,16,07,42,11.10
2014,09,16,07,43,11.10
2014,09,16,07,44,11.10
2014,09,16,07,45,11.10
2014,09,16,07,46,11.20
2014,09,16,07,47,11.20
2014,09,16,07,48,11.20
2014,09,16,07,49,11.30
2014,09,16,07,50,11.40
2014,09,16,07,51,11.40
2014,09,16,07,52,11.50
2014,09,16,07,53,11.60
2014,09,16,07,54,11.60
2014,09,16,07,55,11.70
2014,09,16,07,56,11.80
2014,09,16,07,57,11.80
2014,09,16,07,58,11.90
2014,09,16,07,59,12.00
2014,09,16,08,00,12.10
2014,09,16,08,01,12.20
2014,09,16,08,02,12.30
2014,09,16,08,03,12.40
2014,09,16,08,04,12.50
2014,09,16,08,05,12.50
2014,09,16,08,06,12.60
2014,09,16,08,07,12.70
2014,09,16,08,08,12.80
2014,09,16,08,09,12.90
2014,09,16,08,10,13.00
2014,09,16,08,11,13.00
2014,09,16,08,12,13.10
2014,09,16,08,13,13.20
2014,09,16,08,14,13.30
2014,09,16,08,15,13.30
2014,09,16,08,16,13.40
2014,09,16,08,17,13.50
2014,09,16,08,18,13.70
2014,09,16,08,19,13.80
2014,09,16,08,20,13.90
2014,09,16,08,21,14.00
2014,09,16,08,22,14.10
2014,09,16,08,23,14.30
2014,09,16,08,24,14.40
2014,09,16,08,25,14.50
2014,09,16,08,26,14.60
2014,09,16,08,27,14.80
2014,09,16,08,28,14.90
2014,09,16,08,29,15.10
2014,09,16,08,30,15.20
2014,09,16,08,31,15.30
2014,09,16,08,32,15.40
2014,09,16,08,33,15.50
2014,09,16,08,34,15.60
2014,09,16,08,35,15.70
2014,09,16,08,36,15.70
2014,09,16,08,37,15.70
2014,09,16,08,38,15.80
2014,09,16,08,39,15.80
2014,09,16,08,40,15.90
2014,09,16,08,41,16.00
2014,09,16,08,42,16.10
2014,09,16,08,43,16.20
2014,09,16,08,44,16.30
2014,09,16,08,45,16.40
2014,09,16,08,46,16.40
2014,09,16,08,47,16.50
2014,09,16,08,48,16.60
2014,09,16,08,49,16.70
2014,09,16,08,50,16.70
2014,09,16,08,51,16.70
2014,09,16,08,52,16.70
2014,09,16,08,53,16.70
2014,09,16,08,54,16.70
2014,09,16,08,55,16.70
2014,09,16,08,56,16.70
2014,09,16,08,57,16.70
2014,09,16,08,58,16.70
2014,09,16,08,59,16.70
2014,09,16,09,00,16.70
2014,09,16,09,01,16.70
2014,09,16,09,02,16.70
2014,09,16,09,03,16.80
2014,09,16,09,04,16.80
2014,09,16,09,05,16.90
2014,09,16,09,06,16.90
2014,09,16,09,07,17.00
2014,09,16,09,08,17.00
2014,09,16,09,09,17.00
2014,09,16,09,10,17.10
2014,09,16,09,11,17.10
2014,09,16,09,12,17.10
2014,09,16,09,13,17.10
2014,09,16,09,14,17.10
2014,09,16,09,15,17.10
2014,09,16,09,16,17.10
2014,09,16,09,17,17.10
2014,09,16,09,18,17.10
2014,09,16,09,19,17.10
2014,09,16,09,20,17.00
2014,09,16,09,21,17.00
2014,09,16,09,22,17.00
2014,09,16,09,23,16.90
2014,09,16,09,24,16.70
2014,09,16,09,25,16.70
2014,09,16,09,26,16.60
2014,09,16,09,27,16.50
2014,09,16,09,28,16.40
2014,09,16,09,29,16.40
2014,09,16,09,30,16.40
2014,09,16,09,31,16.30
2014,09,16,09,32,16.30
2014,09,16,09,33,16.20
2014,09,16,09,34,16.10
2014,09,16,09,35,16.10
2014,09,16,09,36,16.00
2014,09,16,09,37,15.90
2014,09,16,09,38,15.80
2014,09,16,09,39,15.60
2014,09,16,09,40,15.50
2014,09,16,09,41,15.40
2014,09,16,09,42,15.30
2014,09,16,09,43,15.30
2014,09,16,09,44,15.20
2014,09,16,09,45,15.20
2014,09,16,09,46,15.20
2014,09,16,09,47,15.20
2014,09,16,09,48,15.20
2014,09,16,09,49,15.20
2014,09,16,09,50,15.20
2014,09,16,09,51,15.20
2014,09,16,09,52,15.30
2014,09,16,09,53,15.30
2014,09,16,09,54,15.30
2014,09,16,09,55,15.30
2014,09,16,09,56,15.30
2014,09,16,09,57,15.30
2014,09,16,09,58,15.30
2014,09,16,09,59,15.30
2014,09,16,10,00,15.30
2014,09,16,10,01,15.40
2014,09,16,10,02,15.40
2014,09,16,10,03,15.50
2014,09,16,10,04,15.50
2014,09,16,10,05,15.60
2014,09,16,10,06,15.60
2014,09,16,10,07,15.70
2014,09,16,10,08,15.70
2014,09,16,10,09,15.80
2014,09,16,10,10,15.80
2014,09,16,10,11,15.80
2014,09,16,10,12,15.90
2014,09,16,10,13,16.00
2014,09,16,10,14,16.10
2014,09,16,10,15,16.20
2014,09,16,10,16,16.30
2014,09,16,10,17,16.40
2014,09,16,10,18,16.50
2014,09,16,10,19,16.60
2014,09,16,10,20,16.70
2014,09,16,10,21,16.70
2014,09,16,10,22,16.80
2014,09,16,10,23,16.90
2014,09,16,10,24,16.90
2014,09,16,10,25,17.00
2014,09,16,10,26,17.10
2014,09,16,10,27,17.20
2014,09,16,10,28,17.30
2014,09,16,10,29,17.30
2014,09,16,10,30,17.30
2014,09,16,10,31,17.30
2014,09,16,10,32,17.30
2014,09,16,10,33,17.30
2014,09,16,10,34,17.30
2014,09,16,10,35,17.40
2014,09,16,10,36,17.40
2014,09,16,10,37,17.40
2014,09,16,10,38,17.50
2014,09,16,10,39,17.60
2014,09,16,10,40,17.70
2014,09,16,10,41,17.80
2014,09,16,10,42,17.90
2014,09,16,10,43,17.90
2014,09,16,10,44,18.10
2014,09,16,10,45,18.20
2014,09,16,10,46,18.30
2014,09,16,10,47,18.40
2014,09,16,10,48,18.50
2014,09,16,10,49,18.60
2014,09,16,10,50,18.70
2014,09,16,10,51,18.80
2014,09,16,10,52,18.90
2014,09,16,10,53,18.90
2014,09,16,10,54,19.00
2014,09,16,10,55,19.10
2014,09,16,10,56,19.20
2014,09,16,10,57,19.40
2014,09,16,10,58,19.50
2014,09,16,10,59,19.70
2014,09,16,11,00,19.90
2014,09,16,11,01,20.00
2014,09,16,11,02,20.10
2014,09,16,11,03,20.20
2014,09,16,11,04,20.30
2014,09,16,11,05,20.30
2014,09,16,11,06,20.30
2014,09,16,11,07,20.40
2014,09,16,11,08,20.50
2014,09,16,11,09,20.60
2014,09,16,11,10,20.70
2014,09,16,11,11,20.90
2014,09,16,11,12,21.10
2014,09,16,11,13,21.20
2014,09,16,11,14,21.30
2014,09,16,11,15,21.50
2014,09,16,11,16,21.60
2014,09,16,11,17,21.60
2014,09,16,11,18,21.50
2014,09,16,11,19,21.30
2014,09,16,11,20,21.30
2014,09,16,11,21,21.10
2014,09,16,11,22,20.90
2014,09,16,11,23,20.90
2014,09,16,11,24,20.90
2014,09,16,11,25,20.80
2014,09,16,11,26,20.80
2014,09,16,11,27,20.80
2014,09,16,11,28,20.70
2014,09,16,11,29,20.50
2014,09,16,11,30,20.40
2014,09,16,11,31,20.20
2014,09,16,11,32,20.10
2014,09,16,11,33,19.90
2014,09,16,11,34,19.90
2014,09,16,11,35,19.90
2014,09,16,11,36,19.90
2014,09,16,11,37,19.90
2014,09,16,11,38,20.00
2014,09,16,11,39,20.00
2014,09,16,11,40,19.90
2014,09,16,11,41,19.90
2014,09,16,11,42,19.90
2014,09,16,11,43,19.90
2014,09,16,11,44,19.80
2014,09,16,11,45,19.70
2014,09,16,11,46,19.60
2014,09,16,11,47,19.60
2014,09,16,11,48,19.60
2014,09,16,11,49,19.60
2014,09,16,11,50,19.60
2014,09,16,11,51,19.60
2014,09,16,11,52,19.60
2014,09,16,11,53,19.70
2014,09,16,11,54,19.70
2014,09,16,11,55,19.60
2014,09,16,11,56,19.60
2014,09,16,11,57,19.60
2014,09,16,11,58,19.60
2014,09,16,11,59,19.60
2014,09,16,12,00,19.60
2014,09,16,12,01,19.70
2014,09,16,12,02,19.80
2014,09,16,12,03,19.90
2014,09,16,12,04,20.00
2014,09,16,12,05,20.10
2014,09,16,12,06,20.20
2014,09,16,12,07,20.20
2014,09,16,12,08,20.20
2014,09,16,12,09,20.30
2014,09,16,12,10,20.40
2014,09,16,12,11,20.50
2014,09,16,12,12,20.60
2014,09,16,12,13,20.70
2014,09,16,12,14,20.80
2014,09,16,12,15,20.90
2014,09,16,12,16,21.00
2014,09,16,12,17,21.10
2014,09,16,12,18,21.20
2014,09,16,12,19,21.30
2014,09,16,12,20,21.40
2014,09,16,12,21,21.40
2014,09,16,12,22,21.50
2014,09,16,12,23,21.60
2014,09,16,12,24,21.60
2014,09,16,12,25,21.60
2014,09,16,12,26,21.70
2014,09,16,12,27,21.70
2014,09,16,12,28,21.70
2014,09,16,12,29,21.80
2014,09,16,12,30,21.90
2014,09,16,12,31,22.00
2014,09,16,12,32,22.00
2014,09,16,12,33,22.10
2014,09,16,12,34,22.10
2014,09,16,12,35,22.20
2014,09,16,12,36,22.20
2014,09,16,12,37,22.30
2014,09,16,12,38,22.30
2014,09,16,12,39,22.30
2014,09,16,12,40,22.30
2014,09,16,12,41,22.30
2014,09,16,12,42,22.40
2014,09,16,12,43,22.40
2014,09,16,12,44,22.50
2014,09,16,12,45,22.60
2014,09,16,12,46,22.60
2014,09,16,12,47,22.60
2014,09,16,12,48,22.70
2014,09,16,12,49,22.80
2014,09,16,12,50,22.80
2014,09,16,12,51,22.90
2014,09,16,12,52,22.80
2014,09,16,12,53,22.80
2014,09,16,12,54,22.90
2014,09,16,12,55,22.90
2014,09,16,12,56,22.90
2014,09,16,12,57,22.90
2014,09,16,12,58,22.90
2014,09,16,12,59,22.90
2014,09,16,13,00,22.90
2014,09,16,13,01,22.90
2014,09,16,13,02,22.90
2014,09,16,13,03,22.90
2014,09,16,13,04,22.90
2014,09,16,13,05,22.90
2014,09,16,13,06,22.90
2014,09,16,13,07,22.90
2014,09,16,13,08,22.90
2014,09,16,13,09,22.90
2014,09,16,13,10,22.90
2014,09,16,13,11,22.90
2014,09,16,13,12,22.90
2014,09,16,13,13,22.90
2014,09,16,13,14,22.90
2014,09,16,13,15,22.90
2014,09,16,13,16,23.00
2014,09,16,13,17,23.10
2014,09,16,13,18,23.10
2014,09,16,13,19,23.20
2014,09,16,13,20,23.30
2014,09,16,13,21,23.40
2014,09,16,13,22,23.60
2014,09,16,13,23,23.70
2014,09,16,13,24,23.70
2014,09,16,13,25,23.70
2014,09,16,13,26,23.70
2014,09,16,13,27,23.70
2014,09,16,13,28,23.70
2014,09,16,13,29,23.60
2014,09,16,13,30,23.60
2014,09,16,13,31,23.70
2014,09,16,13,32,23.70
2014,09,16,13,33,23.60
2014,09,16,13,34,23.40
2014,09,16,13,35,23.30
2014,09,16,13,36,23.30
2014,09,16,13,37,23.30
2014,09,16,13,38,23.20
2014,09,16,13,39,23.10
2014,09,16,13,40,23.00
2014,09,16,13,41,22.80
2014,09,16,13,42,22.70
2014,09,16,13,43,22.60
2014,09,16,13,44,22.60
2014,09,16,13,45,22.60
2014,09,16,13,46,22.60
2014,09,16,13,47,22.60
2014,09,16,13,48,22.60
2014,09,16,13,49,22.50
2014,09,16,13,50,22.40
2014,09,16,13,51,22.20
2014,09,16,13,52,22.20
2014,09,16,13,53,22.10
2014,09,16,13,54,22.10
2014,09,16,13,55,22.10
2014,09,16,13,56,22.20
2014,09,16,13,57,22.20
2014,09,16,13,58,22.20
2014,09,16,13,59,22.30
2014,09,16,14,00,22.40
2014,09,16,14,01,22.40
2014,09,16,14,02,22.30
2014,09,16,14,03,22.30
2014,09,16,14,04,22.30
2014,09,16,14,05,22.30
2014,09,16,14,06,22.30
2014,09,16,14,07,22.20
2014,09,16,14,08,22.20
2014,09,16,14,09,22.20
2014,09,16,14,10,22.30
2014,09,16,14,11,22.30
2014,09,16,14,12,22.40
2014,09,16,14,13,22.40
2014,09,16,14,14,22.50
2014,09,16,14,15,22.60
2014,09,16,14,16,22.70
2014,09,16,14,17,22.80
2014,09,16,14,18,22.90
2014,09,16,14,19,23.00
2014,09,16,14,20,23.10
2014,09,16,14,21,23.20
2014,09,16,14,22,23.20
2014,09,16,14,23,23.30
2014,09,16,14,24,23.30
2014,09,16,14,25,23.30
2014,09,16,14,26,23.30
2014,09,16,14,27,23.30
2014,09,16,14,28,23.20
2014,09,16,14,29,23.20
2014,09,16,14,30,23.10
2014,09,16,14,31,23.10
2014,09,16,14,32,23.20
2014,09,16,14,33,23.20
2014,09,16,14,34,23.20
2014,09,16,14,35,23.20
2014,09,16,14,36,23.30
2014,09,16,14,37,23.30
2014,09,16,14,38,23.40
2014,09,16,14,39,23.60
2014,09,16,14,40,23.70
2014,09,16,14,41,23.80
2014,09,16,14,42,23.90
2014,09,16,14,43,23.90
2014,09,16,14,44,23.90
2014,09,16,14,45,23.80
2014,09,16,14,46,23.70
2014,09,16,14,47,23.60
2014,09,16,14,48,23.70
2014,09,16,14,49,23.70
2014,09,16,14,50,23.70
2014,09,16,14,51,23.70
2014,09,16,14,52,23.80
2014,09,16,14,53,23.80
2014,09,16,14,54,23.80
2014,09,16,14,55,23.90
2014,09,16,14,56,23.90
2014,09,16,14,57,23.90
2014,09,16,14,58,24.00
2014,09,16,14,59,24.00
2014,09,16,15,00,23.90
2014,09,16,15,01,23.90
2014,09,16,15,02,23.90
2014,09,16,15,03,23.90
2014,09,16,15,04,23.90
2014,09,16,15,05,23.90
2014,09,16,15,06,23.90
2014,09,16,15,07,23.90
2014,09,16,15,08,23.90
2014,09,16,15,09,24.00
2014,09,16,15,10,24.10
2014,09,16,15,11,24.10
2014,09,16,15,12,24.10
2014,09,16,15,13,24.10
2014,09,16,15,14,24.10
2014,09,16,15,15,24.10
2014,09,16,15,16,24.10
2014,09,16,15,17,24.10
2014,09,16,15,18,24.10
2014,09,16,15,19,24.10
2014,09,16,15,20,24.10
2014,09,16,15,21,24.10
2014,09,16,15,22,24.10
2014,09,16,15,23,24.10
2014,09,16,15,24,24.10
2014,09,16,15,25,24.00
2014,09,16,15,26,23.90
2014,09,16,15,27,24.00
2014,09,16,15,28,24.10
2014,09,16,15,29,24.00
2014,09,16,15,30,23.90
2014,09,16,15,31,23.90
2014,09,16,15,32,23.90
2014,09,16,15,33,23.90
2014,09,16,15,34,23.90
2014,09,16,15,35,23.80
2014,09,16,15,36,23.80
2014,09,16,15,37,23.80
2014,09,16,15,38,23.80
2014,09,16,15,39,23.80
2014,09,16,15,40,23.80
2014,09,16,15,41,23.80
2014,09,16,15,42,23.80
2014,09,16,15,43,23.80
2014,09,16,15,44,23.90
2014,09,16,15,45,23.90
2014,09,16,15,46,23.90
2014,09,16,15,47,23.90
2014,09,16,15,48,24.00
2014,09,16,15,49,24.00
2014,09,16,15,50,24.10
2014,09,16,15,51,24.10
2014,09,16,15,52,24.10
2014,09,16,15,53,24.10
2014,09,16,15,54,24.10
2014,09,16,15,55,24.10
2014,09,16,15,56,24.00
2014,09,16,15,57,23.90
2014,09,16,15,58,23.80
2014,09,16,15,59,23.70
2014,09,16,16,00,23.70
2014,09,16,16,01,23.60
2014,09,16,16,02,23.40
2014,09,16,16,03,23.40
2014,09,16,16,04,23.30
2014,09,16,16,05,23.30
2014,09,16,16,06,23.30
2014,09,16,16,07,23.30
2014,09,16,16,08,23.30
2014,09,16,16,09,23.20
2014,09,16,16,10,23.10
2014,09,16,16,11,23.00
2014,09,16,16,12,22.90
2014,09,16,16,13,22.90
2014,09,16,16,14,22.90
2014,09,16,16,15,22.90
2014,09,16,16,16,22.90
2014,09,16,16,17,22.90
2014,09,16,16,18,22.90
2014,09,16,16,19,22.80
2014,09,16,16,20,22.80
2014,09,16,16,21,22.80
2014,09,16,16,22,22.80
2014,09,16,16,23,22.80
2014,09,16,16,24,22.80
2014,09,16,16,25,22.80
2014,09,16,16,26,22.80
2014,09,16,16,27,22.80
2014,09,16,16,28,22.80
2014,09,16,16,29,22.80
2014,09,16,16,30,22.80
2014,09,16,16,31,22.80
2014,09,16,16,32,22.70
2014,09,16,16,33,22.70
2014,09,16,16,34,22.70
2014,09,16,16,35,22.70
2014,09,16,16,36,22.70
2014,09,16,16,37,22.70
2014,09,16,16,38,22.70
2014,09,16,16,39,22.70
2014,09,16,16,40,22.60
2014,09,16,16,41,22.60
2014,09,16,16,42,22.60
2014,09,16,16,43,22.50
2014,09,16,16,44,22.50
2014,09,16,16,45,22.40
2014,09,16,16,46,22.40
2014,09,16,16,47,22.30
2014,09,16,16,48,22.20
2014,09,16,16,49,22.20
2014,09,16,16,50,22.10
2014,09,16,16,51,22.00
2014,09,16,16,52,22.00
2014,09,16,16,53,21.90
2014,09,16,16,54,21.90
2014,09,16,16,55,21.80
2014,09,16,16,56,21.80
2014,09,16,16,57,21.70
2014,09,16,16,58,21.70
2014,09,16,16,59,21.70
2014,09,16,17,00,21.60
2014,09,16,17,01,21.70
2014,09,16,17,02,21.70
2014,09,16,17,03,21.70
2014,09,16,17,04,21.70
2014,09,16,17,05,21.80
2014,09,16,17,06,21.80
2014,09,16,17,07,21.90
2014,09,16,17,08,21.90
2014,09,16,17,09,21.90
2014,09,16,17,10,22.00
2014,09,16,17,11,22.00
2014,09,16,17,12,22.00
2014,09,16,17,13,22.00
2014,09,16,17,14,22.00
2014,09,16,17,15,22.00
2014,09,16,17,16,21.90
2014,09,16,17,17,21.90
2014,09,16,17,18,21.80
2014,09,16,17,19,21.70